Location: Focicchia
(42.2496°N, 9.2935°E)
Time: 10:29:34
(UTC+00:00)

Meteor 2-3 Rocket - Pass Details

Date: 07 June 2020
Orbit: 844 x 883 km, 81.2° (Epoch: 07 July)

Event Time Altitude Azimuth Distance (km) Brightness Sun altitude
Exits shadow 03:09:40 - 195° (SSW) 3,346 6.3 -6.4°
Reaches altitude 10° 03:11:57 10° 197° (SSW) 2,462 5.6 -6.1°
Maximum altitude 03:17:31 70° 281° (W) 896 3.8 -5.3°
Drops below altitude 10° 03:23:06 10° 5° (N) 2,474 6.8 -4.4°
Sets 03:25:33 0° 8° (N) 3,414 7.6 -4.1°
